Talkeetna, AK

6:03 PM AKST on January 20, 2018 (GMT -0900)
Talkeetna

Weather History for PATK - January, 2014

Change the Weather History Date:

Thursday, January 23, 2014

  Actual Average Record
Temperature  
Mean Temperature 37 °F -  
Max Temperature 41 °F 19 °F 43 °F (1961)
Min Temperature 33 °F 0 °F -40 °F (1971)
Degree Days  
Heating Degree Days 28    
Moisture  
Dew Point 35 °F    
Average Humidity 94    
Maximum Humidity 100    
Minimum Humidity 76    
Precipitation  
Precipitation 0.43 in - - ()
Sea Level Pressure  
Sea Level Pressure 29.68 in    
Wind  
Wind Speed 1 mph (North)    
Max Wind Speed 6 mph    
Max Gust Speed -    
Visibility 7 miles    
Events Rain    
Averages and records for this station are not official NWS values.
T = Trace of Precipitation, MM = Missing Value Source: NWS Daily Summary

Daily Weather History Graph

Daily Weather History Graph

Search for Another Location

Airport or City:

Trip Planner

Search our weather history database for the weather conditions in past years. The results will help you decide how hot, cold, wet, or windy it might be!

Date:

Astronomy

Jan. 23, 2014 Rise Set
Actual Time 9:50 AM AKST 4:35 PM AKST
Civil Twilight 8:54 AM AKST 5:31 PM AKST
Nautical Twilight 7:57 AM AKST 6:28 PM AKST
Astronomical Twilight 7:04 AM AKST 7:21 PM AKST
Moon 1:37 AM AKST (1/23) 11:03 AM AKST (1/23)
Length of Visible Light 8h 36m
Length of Day
6h 45m
Waning Gibbous, 54% of the Moon is Illuminated
Jan 23
Waning Gibbous
Jan 23
Last Quarter
Jan 30
New
Feb 6
First Quarter
Feb 14
Full

Hourly Weather History & Observations

Time (AKST) Temp. Windchill Dew Point Humidity Pressure Visibility Wind Dir Wind Speed Gust Speed Precip Events Conditions
12:53 AM 36.0 °F - 35.1 °F 97% 29.60 in 9.0 mi Calm Calm - 0.02 in Rain Light Rain
1:53 AM 37.0 °F 33.3 °F 35.1 °F 93% 29.60 in 10.0 mi NNE 4.6 mph - 0.02 in Rain Light Rain
3:53 AM 36.0 °F - 35.1 °F 97% 29.55 in 9.0 mi Calm Calm - 0.02 in Rain Light Rain
4:53 AM 36.0 °F - 35.1 °F 97% 29.52 in 5.0 mi Calm Calm - 0.05 in Rain Rain
5:29 AM 37.4 °F - 35.6 °F 93% 29.50 in 2.5 mi Calm Calm - 0.11 in Rain Rain
5:37 AM 37.4 °F - 35.6 °F 93% 29.51 in 3.0 mi Calm Calm - 0.14 in Rain Heavy Rain
5:53 AM 37.9 °F - 37.0 °F 97% 29.54 in 4.0 mi Calm Calm - 0.20 in Rain Rain
6:53 AM 37.0 °F - 36.0 °F 96% 29.56 in 7.0 mi Calm Calm - 0.12 in Rain Light Rain
7:02 AM 35.6 °F - 35.6 °F 100% 29.55 in 1.8 mi Calm Calm - 0.00 in Rain Light Rain
7:15 AM 35.6 °F - 35.6 °F 100% 29.56 in 2.0 mi Calm Calm - 0.02 in Rain Light Rain
7:23 AM 35.6 °F - 35.6 °F 100% 29.57 in 1.2 mi Calm Calm - 0.02 in Rain Light Rain
7:53 AM 35.1 °F - 34.0 °F 96% 29.62 in 1.5 mi Calm Calm - 0.04 in Rain Light Rain
8:03 AM 35.6 °F - 35.6 °F 100% 29.60 in 3.0 mi Calm Calm - 0.00 in Rain Light Rain
8:15 AM 35.6 °F - 35.6 °F 100% 29.62 in 3.0 mi Calm Calm - 0.00 in Rain Light Rain
8:50 AM 35.6 °F - 33.8 °F 93% 29.64 in 1.5 mi Calm Calm - 0.00 in Rain Light Rain
8:53 AM 35.1 °F - 34.0 °F 96% 29.66 in 1.5 mi Calm Calm - 0.00 in Rain Light Rain
9:36 AM 33.8 °F - 33.8 °F 100% 29.69 in 3.0 mi Calm Calm - 0.01 in Rain Light Rain
9:53 AM 35.1 °F - 34.0 °F 96% 29.73 in 2.5 mi Calm Calm - 0.01 in Rain Light Rain
10:03 AM 33.8 °F - 33.8 °F 100% 29.72 in 2.0 mi Calm Calm - 0.01 in Rain Light Rain
10:53 AM 37.0 °F 33.3 °F 35.1 °F 93% 29.75 in 10.0 mi North 4.6 mph - 0.02 in   Overcast
11:04 AM 37.4 °F - 35.6 °F 93% 29.74 in 10.0 mi Calm Calm - N/A   Overcast
11:30 AM 35.6 °F 32.8 °F 35.6 °F 100% 29.76 in 10.0 mi NNE 3.5 mph - N/A   Overcast
11:53 AM 37.0 °F 34.5 °F 35.1 °F 93% 29.79 in 10.0 mi NNE 3.5 mph - N/A   Overcast
12:53 PM 37.9 °F 34.4 °F 36.0 °F 93% 29.81 in 10.0 mi North 4.6 mph - N/A   Overcast
1:53 PM 37.9 °F - 36.0 °F 93% 29.82 in 10.0 mi Calm Calm - N/A   Mostly Cloudy
2:53 PM 37.9 °F 33.5 °F 36.0 °F 93% 29.82 in 10.0 mi North 5.8 mph - N/A   Overcast
3:53 PM 37.9 °F 34.4 °F 36.0 °F 93% 29.82 in 10.0 mi NNE 4.6 mph - N/A   Overcast
4:53 PM 37.9 °F 34.4 °F 36.0 °F 93% 29.83 in 10.0 mi North 4.6 mph - N/A   Overcast
5:53 PM 37.9 °F 33.5 °F 35.1 °F 89% 29.82 in 10.0 mi North 5.8 mph - N/A   Clear
6:53 PM 39.0 °F 35.7 °F 36.0 °F 89% 29.82 in 10.0 mi North 4.6 mph - N/A   Overcast
7:53 PM 39.9 °F 37.8 °F 35.1 °F 83% 29.81 in 10.0 mi Variable 3.5 mph - N/A   Overcast
8:53 PM 39.9 °F 37.8 °F 35.1 °F 83% 29.79 in 10.0 mi North 3.5 mph - 0.00 in Rain Light Rain
9:53 PM 39.9 °F 35.8 °F 37.0 °F 89% 29.76 in 10.0 mi NNE 5.8 mph - 0.01 in Rain Light Rain
10:53 PM 39.9 °F 35.8 °F 37.9 °F 93% 29.71 in 9.0 mi North 5.8 mph - 0.07 in Rain Light Rain
11:53 PM 39.0 °F - 37.9 °F 96% 29.68 in 5.0 mi Calm Calm - 0.11 in Rain Rain